sat.trackr.live / text

‹ back to catalog

STARLINK-30244

NORAD 57614 · 2023-119N

PAYLOAD ACTIVE UNKNOWN

§ Identity

Operator
Country
US
Launch date
2023-08-11
Launch site
AFETR
Launch vehicle
Mass (kg)
RCS (m²)

Purposes: comms

External: N2YO · Heavens-Above · Gunter

§ Orbital elements

Epoch: 2026-09-20T17:02:20.607072Z

Period
94.27 min
Inclination
43.0039°
Eccentricity
0.0001854
Mean motion
15.27579934 rev/d
Perigee alt
481.8 km
Apogee alt
484.3 km
Semi-major
6,861.2 km
B*
3.6327e-5
RAAN
60.0761°
Arg perigee
259.1400°
Mean anomaly
100.9243°
Rev number
17,291

§ Raw data

STARLINK-302441 57614U 23119N   26263.70996073  .00000737  00000+0  36327-4 0  99902 57614  43.0039  60.0761 0001854 259.1400 100.9243 15.27579934172914

JSON: /api/v1/satellites/57614 · /tle

For live sub-satellite position, see the globe view (requires WebGL).

§ Visibility from observer

Set your observer location to see the next 7 days of passes ≥ 10°. The values pass through the URL so the page stays shareable.

No JS? Fill the form by hand. The geolocation button needs JavaScript.